Regional Weather Roundup
Issued by NWS

Home | Current Version | Previous Version | Graphics & Text | Print | Product List | Glossary On
Versions: 1 2 3 4 5 6 7 8 9 10 11 12 13 14 15 16 17 18 19 20 21 22 23 24 25 26 27 28 29 30 31 32 33 34 35 36 37 38 39 40 41 42 43 44 45 46 47 48 49 50
000
ASUS43 KBIS 291402
RWRND

NORTH DAKOTA REGIONAL WEATHER ROUNDUP
NATIONAL WEATHER SERVICE BISMARCK ND
900 AM CDT MON JUN 29 2015

NOTE: "FAIR" INDICATES FEW OR NO CLOUDS BELOW 12,000 FEET WITH NO
SIGNIFICANT WEATHER AND/OR OBSTRUCTIONS TO VISIBILITY.


NDZ001>003-009>011-017-291500-
NORTHWEST NORTH DAKOTA

CITY           SKY/WX    TMP DP  RH WIND       PRES   REMARKS
WILLISTON      MOSUNNY   74  59  59 VRB3      30.01R
MINOT          PTSUNNY   76  57  51 W10       29.96R
MINOT AFB      MOSUNNY   78  64  61 NW8       29.95R
$$

NDZ018>021-031>035-040>046-291500-
SOUTHWEST NORTH DAKOTA

CITY           SKY/WX    TMP DP  RH WIND       PRES   REMARKS
BISMARCK       SUNNY     70  59  68 W5        29.99S
DICKINSON      SUNNY     74  63  68 W7        30.03R
GARRISON         N/A     70  61  73 N5        29.98S
HETTINGER ARPT SUNNY     72  62  71 W3        30.07R
$$

NDZ004>008-012>016-024-026-027-054-291500-
NORTHEAST NORTH DAKOTA

CITY           SKY/WX    TMP DP  RH WIND       PRES   REMARKS
GRAND FORKS    CLOUDY    69  64  84 W8        29.83R
GRND FRKS AFB  SUNNY     69  62  78 NW9       29.84R
DEVILS LAKE    SUNNY     68  57  68 NW10      29.89S
$$

NDZ022-023-025-028>030-036>039-047>053-291500-
SOUTHEAST NORTH DAKOTA

CITY           SKY/WX    TMP DP  RH WIND       PRES   REMARKS
FARGO          SUNNY     68  62  81 W6        29.85F HAZE
JAMESTOWN      SUNNY     69  59  70 W9        29.91F
$$



USA.gov is the U.S. government's official web portal to all federal, state and local government web resources and services.